Location: L'Union
(43.6635°N, 1.4699°E)
Time: 21:15:48
(UTC+02:00)

YUBILEINY - Visible Passes

Search period start: 21 October 2021 00:00
Search period end: 31 October 2021 00:00
Orbit: 1477 x 1509 km, 82.5° (Epoch: 21 October)

Date Brightness Start Highest point End Pass type
(mag) Time Alt. Az. Time Alt. Az. Time Alt. Az.
21 Oct ? 00:54:14 16° NW 00:54:14 16° NW 00:59:01 10° NNW visible
21 Oct ? 07:01:17 10° NNE 07:05:03 13° NE 07:08:48 10° E visible
21 Oct ? 20:12:50 12° ENE 20:12:50 12° ENE 20:14:09 10° NE visible
21 Oct ? 22:08:42 47° NNE 22:08:42 47° NNE 22:14:34 10° NNE visible
22 Oct ? 00:04:33 28° NW 00:04:33 28° NW 00:10:44 10° N visible
22 Oct ? 21:18:52 34° ENE 21:18:52 34° ENE 21:24:30 10° NNE visible
22 Oct ? 23:14:42 46° NW 23:14:42 46° NW 23:21:42 10° N visible
23 Oct ? 07:17:25 10° NNE 07:23:33 20° ENE 07:29:39 10° ESE visible
23 Oct ? 20:28:49 20° ENE 20:28:49 20° ENE 20:33:46 10° NE visible
23 Oct ? 22:24:38 71° N 22:24:38 71° N 22:32:16 10° N visible
24 Oct ? 00:20:27 18° WNW 00:21:45 19° WNW 00:27:35 10° NNW visible
24 Oct ? 06:30:52 10° NE 06:32:38 11° NE 06:34:24 10° ENE visible
24 Oct ? 21:25:39 10° SSE 21:34:03 58° E 21:42:30 10° NNE visible
24 Oct ? 23:29:47 32° W 23:31:17 34° WNW 23:39:00 10° N visible
25 Oct ? 07:34:19 10° N 07:41:48 30° ENE 07:49:16 10° SE visible
25 Oct ? 20:37:36 10° SE 20:44:57 32° E 20:52:18 10° NNE visible
25 Oct ? 22:32:42 10° SSW 22:41:14 58° WNW 22:49:48 10° N visible
26 Oct ? 00:37:11 10° WNW 00:40:18 12° NW 00:43:25 10° NNW visible
26 Oct ? 06:45:55 10° NNE 06:51:14 17° ENE 06:56:34 10° E visible
26 Oct ? 19:51:08 10° ESE 19:56:10 17° ENE 20:01:11 10° NE visible
26 Oct ? 21:42:51 10° S 21:51:32 84° E 22:00:16 10° N visible
26 Oct ? 23:43:00 10° WSW 23:49:28 23° WNW 23:55:59 10° NNW visible
27 Oct ? 07:51:32 10° N 07:59:50 45° ENE 08:08:06 10° SE visible
27 Oct ? 20:54:00 10° SSE 21:02:12 49° E 21:10:23 10° NNE visible
27 Oct ? 22:51:09 10° SW 22:59:08 39° WNW 23:07:11 10° N visible
28 Oct ? 07:02:34 10° N 07:09:36 26° ENE 07:16:35 10° ESE visible
28 Oct ? 20:06:20 10° SE 20:13:11 27° E 20:20:00 10° NNE visible
28 Oct ? 22:00:33 10° SSW 22:09:11 68° W 22:17:53 10° N visible
29 Oct ? 00:03:25 10° W 00:07:54 15° NW 00:12:25 10° NNW visible
29 Oct ? 06:14:36 10° NNE 06:18:54 14° NE 06:23:11 10° E visible
29 Oct ? 19:20:41 10° E 19:24:30 14° ENE 19:28:19 10° NE visible
29 Oct ? 21:11:00 10° S 21:19:37 72° E 21:28:15 10° NNE visible
29 Oct ? 23:10:12 10° WSW 23:17:14 27° WNW 23:24:19 10° N visible
30 Oct ? 07:19:42 10° N 07:27:43 38° ENE 07:35:44 10° SE visible
30 Oct ? 20:22:28 10° SSE 20:30:21 41° E 20:38:15 10° NNE visible
30 Oct ? 22:18:45 10° SW 22:27:00 46° WNW 22:35:20 10° N visible
